Wind_Speed
56 57 57 58 58 58 59 59 59 60 61 61 61 62 63 64 64 65 66 67 67 68 69 69 69 70 70 71 72 73 73 74 75 76 77 77 78 79 79 80 80 81 81 81 81 81 82 82 82 82 82 83 83 84 84 85 86 86 87 88 88 89 90 91 92 93 94 95 96 97 98 99 99 100 100 100 100 100 99 97 95 92 90 88 86 84
57 58 58 59 59 59 60 60 61 61 62 62 63 64 64 65 66 66 67 68 69 69 70 70 71 71 72 72 73 74 75 76 76 77 78 78 79 79 80 80 81 81 81 81 81 81 81 82 82 82 82 82 83 84 84 85 85 86 87 87 88 89 90 91 92 92 93 94 95 96 96 97 97 97 97 96 95 93 90 87 83 80 78 76 75 74
58 58 59 59 60 60 61 61 62 62 63 64 64 65 65 66 67 67 68 69 69 70 71 71 72 72 73 73 74 75 76 77 77 78 79 79 80 80 80 80 81 81 81 81 81 81 81 81 81 81 82 82 83 83 84 85 85 86 86 87 88 89 89 90 91 91 92 92 93 93 93 93 93 92 91 89 86 82 78 75 72 70 68 68 69 69
58 59 60 60 61 61 61 62 62 63 64 64 65 66 66 67 68 68 69 70 70 71 72 72 73 73 74 75 75 76 77 78 78 79 79 79 80 80 80 80 80 81 81 81 81 80 81 81 81 81 81 82 82 83 84 85 85 86 87 87 88 89 89 89 89 89 89 89 89 89 88 87 86 84 82 78 74 70 67 65 64 64 64 65 67 68
59 59 60 61 61 61 62 62 63 64 64 65 66 66 67 68 69 70 70 71 72 72 73 73 74 75 76 76 77 77 78 79 79 79 79 80 80 80 80 80 80 80 80 80 80 80 80 80 80 81 81 82 83 83 84 85 86 86 87 87 88 88 88 87 87 86 86 85 84 83 81 79 77 74 71 68 65 63 61 61 61 61 62 63 64 66
59 60 61 61 61 62 62 63 63 64 65 66 67 68 69 70 70 71 72 72 73 74 75 75 76 77 77 78 78 79 79 79 80 80 80 80 80 80 80 80 79 79 79 79 79 79 79 79 80 80 81 82 83 84 84 85 86 86 87 87 86 86 85 85 84 83 81 80 78 76 74 71 69 67 64 62 61 60 59 58 58 57 57 58 59 61
59 60 60 61 62 62 63 63 64 65 67 68 68 69 70 71 72 73 74 74 75 76 76 77 78 78 79 79 80 80 80 80 80 80 80 80 80 79 79 79 79 79 78 78 78 79 79 79 80 81 82 82 83 84 85 85 86 86 86 85 84 83 82 81 80 78 76 74 72 70 68 66 64 62 61 60 60 59 57 56 55 54 54 55 56 57
59 60 60 61 62 63 64 64 65 67 68 69 70 71 72 73 74 75 75 76 77 78 78 79 79 80 80 80 81 81 81 81 80 80 80 79 79 79 79 79 78 78 78 78 78 78 79 79 80 81 82 83 84 84 85 85 85 84 83 82 81 80 78 76 74 72 70 68 67 65 64 63 62 61 61 60 59 58 56 55 54 54 55 56 57 58
60 60 61 62 63 64 65 66 67 68 70 71 72 73 74 75 76 76 77 78 78 79 80 80 80 81 81 81 81 81 81 80 80 79 79 79 78 78 78 78 78 77 77 78 78 78 79 80 81 81 82 83 83 84 84 83 83 81 80 78 76 74 72 70 69 67 66 65 64 63 62 62 62 61 61 60 59 58 57 57 57 58 59 60 60 61
60 61 62 63 64 65 67 68 69 70 72 73 74 75 76 77 78 78 78 79 79 80 80 81 81 81 81 81 81 80 80 80 79 78 78 77 77 77 77 77 77 77 77 77 78 78 79 80 81 81 82 82 83 82 82 81 79 77 75 73 70 68 67 66 65 64 63 63 62 62 62 62 62 61 61 61 60 60 60 60 61 61 62 63 63 63
62 63 64 65 66 67 68 70 71 72 73 75 76 77 78 78 79 79 80 80 80 80 81 81 81 81 80 80 80 79 78 78 77 77 76 76 76 76 76 76 76 76 76 77 78 79 79 80 81 81 81 81 81 80 78 77 74 72 69 67 65 64 63 63 63 62 62 62 62 62 62 62 61 61 62 62 62 62 63 63 64 64 64 64 64 64
63 65 66 67 68 69 70 71 73 74 75 76 77 78 79 79 80 80 80 80 81 80 80 80 80 80 79 78 78 78 77 76 75 75 75 75 75 75 75 75 75 76 77 77 78 79 79 80 80 80 80 79 78 76 73 70 67 65 63 62 62 62 62 61 61 61 61 61 61 61 61 61 61 62 62 63 64 64 65 65 65 65 65 65 65 65
66 67 68 69 70 71 72 73 74 75 76 77 77 78 79 79 80 80 80 80 80 80 79 79 78 78 77 76 76 76 75 75 74 74 73 73 74 74 75 75 76 76 77 78 78 79 79 79 79 79 78 76 73 70 66 63 61 60 60 60 60 60 60 60 60 60 60 60 60 60 60 61 61 62 62 63 64 64 65 65 65 65 65 65 65 65
68 69 70 71 72 72 73 74 75 76 77 77 78 78 79 79 80 80 80 80 79 79 78 77 76 75 74 74 74 74 74 74 73 73 73 73 74 75 75 76 76 77 77 78 78 79 79 78 77 76 74 70 66 62 59 58 58 58 59 59 59 59 59 59 58 58 58 58 58 59 59 60 61 61 62 62 63 63 63 64 64 64 64 65 65 65
70 71 72 72 73 74 75 75 76 77 77 78 78 78 78 79 79 79 78 78 78 77 76 75 74 73 72 72 72 73 74 74 73 73 73 73 74 76 76 77 77 77 78 78 78 78 77 76 74 72 68 62 58 56 56 56 57 58 58 58 58 58 57 57 57 57 57 57 57 58 58 59 60 60 60 61 61 62 62 63 63 64 64 64 64 65
72 72 73 74 74 75 76 76 77 77 77 78 78 78 78 78 78 78 77 77 77 76 75 73 72 71 70 70 71 72 74 74 74 74 73 73 75 76 77 77 77 77 77 77 77 76 75 72 69 65 59 55 54 54 55 56 57 57 57 57 56 56 56 55 55 55 55 55 56 56 57 58 58 58 59 59 60 61 62 62 63 63 64 64 64 65
73 74 75 75 76 76 76 77 77 77 77 77 77 77 77 77 77 77 76 76 75 74 73 72 71 70 70 70 70 72 74 75 75 75 74 74 75 77 77 77 77 77 76 75 74 73 70 66 62 57 53 52 52 53 54 55 55 55 55 55 54 54 54 54 54 54 54 54 55 55 56 56 57 57 57 58 59 59 60 61 62 62 63 64 65 66
75 75 76 76 77 77 77 77 77 77 77 77 77 77 77 77 76 76 75 75 74 73 72 72 71 71 70 70 71 72 74 75 76 76 76 75 75 76 77 76 76 75 74 72 70 68 64 59 54 51 50 51 52 53 53 53 53 53 53 53 53 53 53 53 52 53 53 53 54 54 55 55 55 55 56 57 57 58 59 60 60 61 63 64 65 66
76 76 77 77 77 77 77 77 77 77 77 77 77 76 76 76 76 75 75 74 73 73 72 72 72 72 72 72 72 73 75 76 76 77 76 76 75 75 75 74 73 72 70 68 65 61 56 52 49 49 50 51 51 52 51 51 52 52 52 52 52 52 52 52 51 52 52 52 53 53 53 54 54 54 55 56 56 57 58 59 60 61 62 63 64 64
77 77 77 78 78 78 77 77 77 76 76 77 76 76 76 75 75 75 74 74 73 73 73 73 73 73 73 73 73 74 76 76 77 77 76 75 74 73 72 71 69 68 66 63 59 54 50 48 48 48 49 50 50 50 50 50 50 51 51 51 51 51 51 50 50 51 51 52 52 52 52 53 53 53 54 55 56 56 57 58 59 61 61 62 62 61
78 78 78 78 78 77 77 77 76 76 76 76 76 76 76 76 75 75 74 74 74 74 74 74 74 74 74 74 74 75 76 76 76 75 75 73 72 70 69 67 66 64 61 57 53 49 47 47 47 48 48 48 48 48 48 49 49 50 50 50 50 49 49 49 50 50 50 51 51 51 51 52 52 52 53 54 55 56 57 58 59 60 60 60 60 59
79 78 78 78 77 77 76 76 76 75 75 76 76 77 77 76 76 76 75 75 75 75 75 75 75 75 75 75 75 75 75 74 73 73 72 71 68 66 65 64 62 60 56 51 47 45 45 46 46 46 46 46 46 47 47 48 48 49 49 49 48 48 48 48 49 49 50 50 50 50 50 51 51 51 52 53 54 55 56 57 58 58 58 58 58 57
79 78 78 77 77 76 76 76 75 75 76 76 77 77 77 77 77 77 76 76 76 76 76 76 76 75 75 74 74 73 73 72 71 70 69 67 65 63 62 60 58 54 50 46 44 44 44 45 45 44 44 45 45 46 46 47 47 47 47 47 47 47 47 48 48 48 49 49 49 49 49 50 50 50 51 52 53 54 55 56 56 57 57 57 56 56
79 78 77 76 76 76 75 75 75 76 76 77 77 78 78 78 78 78 78 78 78 78 77 77 76 75 74 73 72 71 70 69 67 66 65 63 62 60 58 56 53 49 45 43 43 43 44 43 43 43 43 43 44 44 45 45 45 45 45 45 45 46 46 47 47 48 48 48 48 48 48 49 49 49 50 51 52 53 54 55 55 56 56 56 56 56
78 77 76 76 75 75 75 75 76 76 77 78 79 79 80 80 80 79 79 79 79 78 78 76 75 74 72 71 69 68 66 65 63 62 61 60 59 57 54 51 48 45 42 41 42 43 43 42 42 42 42 42 43 43 43 43 43 43 43 43 44 44 45 46 47 47 47 48 48 48 48 48 48 48 49 50 51 52 53 54 55 55 56 56 56 56
77 77 76 75 75 75 75 76 77 77 78 79 80 81 81 81 81 80 79 79 78 78 77 75 74 72 70 69 66 64 62 60 59 58 58 58 56 54 50 47 44 42 41 41 41 42 42 41 41 41 41 41 42 42 42 41 41 41 41 42 43 44 44 45 46 47 47 47 47 47 47 47 47 47 48 49 50 51 52 53 54 55 55 55 55 55
77 76 76 75 75 75 76 77 77 78 79 80 81 82 82 82 81 80 79 78 77 76 75 73 72 70 68 66 63 60 58 56 55 55 56 55 53 50 46 43 42 42 42 41 41 41 41 40 40 40 40 40 41 41 41 40 40 40 41 41 42 43 44 45 46 46 47 47 47 47 46 46 46 47 47 48 49 50 52 53 54 55 55 55 55 55
77 76 75 75 75 76 77 77 78 79 80 80 81 82 82 81 80 79 78 77 75 74 73 71 69 67 65 62 59 56 53 52 52 53 53 52 49 46 43 41 41 42 42 42 41 40 40 40 40 40 40 40 40 40 40 40 40 40 41 41 42 44 45 45 46 46 47 47 46 46 46 46 46 46 47 47 48 50 51 52 53 54 54 54 54 54
76 76 75 76 76 77 77 78 79 79 80 80 81 81 81 80 79 77 76 75 73 71 70 68 66 64 61 58 55 52 50 49 50 51 50 49 46 43 41 41 42 42 43 42 41 39 38 39 39 39 40 40 40 40 40 40 40 41 41 42 43 44 45 46 46 47 47 47 46 46 46 46 46 46 46 47 48 49 50 51 52 53 53 53 53 52
76 75 76 76 76 77 78 78 79 79 79 79 79 79 79 78 77 75 74 73 71 69 67 65 63 60 57 54 51 48 46 47 48 49 48 46 43 41 40 41 42 43 43 43 41 39 38 37 38 39 40 40 40 40 41 41 41 41 42 43 43 44 45 46 47 47 47 47 47 46 46 46 46 46 46 47 47 48 49 50 51 51 52 51 51 51
76 76 76 76 77 77 78 78 79 79 79 78 78 77 77 76 74 73 71 69 67 65 63 61 58 55 52 49 47 45 44 45 46 47 46 44 42 41 41 42 42 42 42 43 42 41 38 37 37 38 40 40 41 41 41 42 42 42 43 43 44 45 46 47 47 47 47 47 47 47 47 46 46 46 46 46 47 47 48 49 50 50 50 50 50 50
76 76 77 77 77 78 78 78 78 78 77 76 76 75 74 73 71 70 68 66 64 62 59 56 53 50 48 46 45 44 43 44 44 45 44 43 42 41 41 42 43 42 42 42 42 42 40 38 38 38 39 40 41 41 42 42 42 43 44 44 45 46 47 47 48 48 48 47 47 47 47 46 46 46 46 46 46 47 47 48 49 49 50 50 49 49
77 77 77 77 77 77 77 77 76 76 75 74 73 72 71 70 68 66 64 62 60 57 54 51 48 46 44 43 43 43 42 43 43 43 43 43 43 42 42 42 42 42 42 42 42 42 41 41 40 39 40 40 41 42 42 43 43 44 44 45 46 46 47 48 48 48 48 48 48 47 47 47 46 46 46 46 46 46 46 47 48 48 49 49 49 49
77 77 77 77 77 77 76 75 75 74 73 71 70 69 68 66 64 63 60 58 56 53 50 46 44 43 42 42 42 41 41 42 42 43 43 43 43 42 42 41 42 42 42 41 41 41 41 41 41 41 41 41 41 42 42 43 43 44 45 46 46 47 48 48 48 48 48 48 48 47 47 47 46 46 45 45 45 45 46 46 47 48 48 49 49 50
77 77 77 77 76 75 74 73 72 71 70 69 67 66 64 63 61 58 56 53 51 47 44 42 41 41 41 41 41 40 40 41 42 43 43 43 43 42 42 41 41 41 42 41 41 41 41 41 42 42 42 42 42 42 42 43 44 44 45 46 47 48 48 49 49 49 48 48 48 48 47 47 47 46 45 45 45 45 45 45 46 47 48 49 49 50
77 77 76 75 74 73 72 71 69 68 67 65 64 62 61 59 56 54 51 48 45 42 40 39 38 39 39 40 40 40 40 40 42 42 43 43 43 42 41 41 41 41 41 41 41 41 41 41 41 42 42 43 42 42 42 43 43 44 45 46 47 48 49 49 49 49 49 48 48 48 47 47 47 46 46 45 45 45 45 45 46 47 48 48 49 50
76 75 74 73 72 71 69 68 66 65 63 62 60 59 57 54 52 49 46 43 40 38 37 37 38 38 39 39 39 39 40 41 41 42 42 42 41 41 41 40 40 40 41 41 41 41 41 41 41 42 42 42 42 42 42 42 43 43 44 45 46 47 48 49 49 49 49 48 48 48 47 47 47 46 46 45 44 44 45 45 46 47 48 48 49 49
75 74 72 71 70 68 66 65 63 62 60 58 57 55 52 50 47 44 41 38 36 35 36 36 37 38 39 39 39 39 40 41 41 41 41 40 40 40 40 39 39 39 40 41 41 41 41 42 42 42 42 41 42 42 42 42 43 43 44 44 45 47 48 48 49 49 48 48 48 47 47 47 46 46 45 44 44 44 45 45 46 47 48 48 48 49
73 71 70 68 67 65 63 61 60 58 56 55 53 50 48 45 41 39 36 34 34 34 35 36 37 37 38 38 39 39 40 40 40 39 39 39 39 39 39 39 39 39 39 40 41 41 42 42 42 42 42 41 41 41 41 42 42 43 43 44 44 45 47 47 48 48 48 47 47 47 46 46 46 45 44 44 44 44 45 46 46 47 48 48 48 48
70 69 67 65 63 62 60 58 56 55 53 51 48 46 43 39 37 34 33 32 33 34 35 36 36 37 37 37 38 38 38 38 38 38 38 38 38 38 38 38 38 39 39 40 40 41 41 42 42 42 41 41 40 40 40 41 42 42 43 43 43 44 45 46 47 47 47 47 46 46 46 45 44 44 43 43 43 44 45 46 46 47 48 48 48 48
68 66 64 62 60 58 56 55 53 51 49 46 43 41 38 35 33 32 31 32 33 34 35 35 35 35 36 36 37 36 36 36 36 36 36 37 37 37 37 38 38 38 39 39 40 40 41 41 41 41 41 40 40 40 40 40 41 42 42 43 43 43 44 45 45 46 46 46 46 45 45 44 43 42 42 42 43 44 45 46 47 47 48 48 48 49
65 63 61 58 56 54 52 51 49 47 44 41 39 36 33 32 31 30 31 32 33 34 34 34 34 34 35 35 34 34 34 34 34 35 35 35 36 36 37 37 38 38 39 39 39 40 40 41 41 41 40 40 40 40 40 40 41 41 42 42 42 43 43 43 44 45 45 45 45 44 44 43 42 41 41 41 42 43 44 45 46 47 48 48 49 49
61 59 57 55 52 50 48 46 44 42 39 37 34 32 30 29 29 30 31 32 32 32 32 33 33 33 33 32 31 31 31 32 32 33 34 34 35 35 36 37 37 37 38 38 39 39 39 40 40 41 40 40 40 40 40 40 40 40 41 42 42 42 42 42 43 43 43 44 44 43 43 42 41 40 40 40 41 42 43 45 46 47 47 48 48 49
58 55 53 51 48 46 44 42 40 37 35 32 30 29 28 28 29 30 31 31 31 31 31 32 32 31 30 29 29 29 29 30 31 31 32 33 33 34 35 35 36 37 37 38 39 39 39 40 40 40 40 40 40 40 40 39 39 40 40 41 41 42 42 42 42 42 42 42 42 42 42 41 40 40 39 40 41 42 43 44 45 46 47 47 48 49
54 51 49 46 44 42 40 38 35 33 31 29 28 27 28 28 29 30 30 30 30 30 31 30 30 28 27 26 26 26 27 28 29 30 30 31 32 32 33 34 35 36 37 38 39 39 40 40 40 39 39 39 40 40 40 39 39 39 40 40 41 41 41 41 41 41 41 41 41 41 40 40 39 39 39 39 40 41 42 43 44 45 46 46 47 48
50 47 45 42 40 38 36 34 31 29 28 27 27 27 28 29 30 30 30 29 29 30 29 28 27 25 24 24 24 24 25 26 26 27 28 29 30 31 32 33 34 35 36 37 38 39 39 39 39 39 39 39 39 39 39 40 40 40 40 40 40 40 41 41 41 41 41 40 40 40 40 39 39 39 38 39 40 41 42 43 44 44 45 45 46 47
45 43 40 38 36 34 32 30 28 27 26 26 26 27 28 29 29 29 29 29 29 28 27 25 23 22 22 21 22 22 22 23 23 24 25 27 28 29 31 32 33 34 35 36 37 37 38 38 38 38 38 38 38 38 39 39 40 40 40 40 40 40 40 40 40 40 40 40 40 39 39 39 38 38 38 38 39 40 42 42 43 44 44 44 45 46
41 39 36 34 32 30 28 27 26 25 25 26 27 27 28 28 28 28 28 28 27 25 23 22 20 20 19 19 19 19 19 20 21 22 23 25 26 28 29 30 31 32 33 34 34 35 36 37 37 37 37 37 37 37 38 39 39 40 40 40 40 40 40 40 40 40 40 39 39 39 39 39 38 38 38 38 39 40 41 42 42 43 43 43 44 45
37 34 32 30 28 27 26 25 24 24 25 26 27 27 27 27 27 27 27 26 24 22 20 19 18 17 17 17 17 17 17 18 19 20 22 23 24 26 27 28 28 29 30 31 32 33 34 35 36 36 37 37 37 37 37 38 38 39 40 40 40 40 39 39 39 39 39 39 38 38 38 38 38 38 38 38 39 39 40 40 41 41 42 42 43 44
33 31 29 27 26 24 24 23 24 24 25 26 26 26 26 26 26 26 25 23 21 19 17 16 16 15 15 14 14 15 15 16 18 19 20 21 22 23 24 25 26 27 28 29 30 32 33 34 36 36 36 37 37 37 37 37 37 38 39 39 40 39 39 39 38 38 38 38 37 37 37 38 38 38 38 38 39 39 39 39 39 40 40 41 41 42
29 27 26 24 23 23 23 23 24 24 25 25 25 25 25 25 25 24 22 20 18 16 15 14 13 13 12 12 13 13 14 16 17 18 19 20 21 22 22 24 25 26 27 29 30 31 33 34 36 37 38 38 38 37 37 37 37 38 38 39 39 39 39 38 38 37 37 37 37 36 37 37 37 37 38 38 38 38 38 37 37 38 38 39 40 40
Wind_Direction
289 288 288 288 288 288 288 288 288 288 288 288 288 288 288 288 288 289 289 289 289 290 290 290 290 291 291 291 291 292 292 292 293 293 293 293 293 293 293 293 293 293 292 292 292 291 291 291 290 290 289 289 288 288 288 288 288 287 287 287 287 287 287 287 287 287 287 287 286 286 286 286 285 285 285 284 284 284 284 283 283 282 281 281 280 279
289 289 289 289 289 289 289 289 289 289 289 289 289 289 290 290 290 290 290 291 291 291 291 292 292 292 292 293 293 293 294 294 294 294 294 294 295 294 294 294 294 293 293 293 292 292 291 291 291 290 290 289 289 289 289 289 289 289 289 289 289 288 288 288 288 288 288 288 287 287 287 286 286 286 285 285 285 284 284 283 282 282 281 280 279 278
290 289 289 289 289 290 290 290 290 290 290 291 291 291 291 291 291 291 291 292 292 292 292 293 293 293 293 294 294 294 294 295 295 295 295 295 295 295 294 294 294 293 293 293 292 292 291 291 290 290 290 290 289 289 289 289 289 289 289 289 289 289 289 289 289 289 288 288 288 287 287 287 286 286 285 285 285 284 284 283 282 282 281 280 279 278
290 290 290 290 290 290 290 291 291 291 291 291 292 292 292 292 292 292 292 293 293 293 293 293 294 294 294 294 294 295 295 295 295 295 295 295 295 295 294 294 293 293 292 292 292 291 291 291 290 290 290 290 290 290 290 290 290 290 290 290 290 290 290 289 289 289 288 288 287 287 287 286 286 286 285 285 285 285 284 284 283 283 282 281 280 279
291 291 291 291 291 291 291 291 292 292 292 292 292 293 293 293 293 293 293 293 293 294 294 294 294 294 295 295 295 295 295 295 295 295 295 295 294 294 294 293 293 292 292 291 291 291 290 290 290 290 290 290 290 290 290 290 290 290 290 290 290 290 289 289 288 288 287 287 286 286 285 285 285 285 285 286 286 286 286 285 285 284 282 281 280 279
291 291 292 292 292 292 292 292 293 293 293 293 293 294 294 294 294 294 294 294 294 294 295 295 295 295 295 296 296 296 296 295 295 295 295 294 294 293 293 292 292 292 291 291 291 290 290 290 290 290 290 290 290 291 291 291 291 291 290 290 290 289 289 288 287 286 286 285 285 284 284 285 285 285 286 286 287 287 287 286 285 284 283 282 281 280
292 292 292 292 293 293 293 294 294 294 294 294 294 294 294 294 295 295 295 295 295 295 295 295 295 296 296 296 296 296 295 295 295 294 294 293 293 292 292 292 291 291 291 290 290 290 290 290 290 290 291 291 291 291 291 291 291 290 290 290 289 288 287 286 285 285 284 284 283 283 284 284 284 285 285 286 287 287 287 286 285 284 283 283 282 282
292 292 293 293 293 294 294 294 295 295 295 295 295 295 295 295 295 295 295 295 296 296 296 296 296 296 296 296 296 295 295 295 294 294 293 293 292 292 291 291 291 290 290 290 290 290 290 291 291 291 291 291 291 291 291 291 291 290 289 289 288 287 286 285 284 283 283 283 283 283 283 284 284 285 285 286 286 286 285 285 284 284 284 284 284 283
294 294 294 294 294 295 295 295 295 295 296 296 296 296 296 295 295 295 295 296 296 296 296 296 296 296 296 296 296 295 295 294 294 293 293 292 292 291 291 291 290 290 290 290 290 291 291 291 291 291 291 291 291 291 291 291 290 289 288 287 286 285 284 283 282 282 282 283 283 283 283 283 284 284 285 285 285 285 284 284 284 285 285 285 285 284
294 294 294 294 295 295 296 296 296 296 296 296 296 296 296 296 296 296 296 296 296 296 296 296 296 296 296 296 295 295 294 294 293 293 292 292 291 291 290 290 290 290 290 291 291 291 291 291 291 291 291 291 291 291 291 290 289 288 286 285 284 283 282 282 282 282 282 282 282 283 283 283 284 284 284 285 284 284 284 284 284 285 286 286 285 284
295 295 295 295 295 296 296 297 297 297 297 297 297 297 297 297 297 297 297 296 296 297 297 297 297 297 297 296 295 295 294 293 293 292 292 291 291 291 290 290 290 291 291 291 291 291 291 291 291 291 291 291 291 291 290 289 287 285 284 282 282 281 281 281 281 282 282 282 282 283 283 283 283 284 284 284 284 284 284 284 284 285 285 286 285 285
296 296 296 296 296 297 297 297 297 297 297 297 297 297 297 297 297 297 297 297 297 297 297 297 297 297 297 296 295 295 294 293 292 292 291 291 291 291 291 291 291 291 291 291 291 292 292 292 292 291 291 291 291 290 288 286 285 283 282 281 281 281 281 281 282 282 282 283 283 283 283 283 284 284 284 284 284 284 284 284 284 284 285 285 285 285
297 297 297 297 297 298 298 298 298 298 298 298 298 298 298 298 298 298 298 298 298 298 298 297 297 297 296 296 295 294 294 293 292 292 292 292 292 292 291 291 291 292 292 292 292 292 292 292 292 292 292 291 290 288 286 284 282 281 281 281 281 282 282 282 282 282 283 283 283 283 283 284 284 284 284 283 283 283 283 283 283 284 284 285 285 284
297 297 298 298 298 299 299 299 299 299 299 299 299 299 299 299 299 299 298 298 298 298 298 297 297 297 296 296 295 294 294 293 293 293 293 293 293 293 293 292 292 292 293 293 292 292 292 292 292 292 291 290 288 286 283 282 281 281 282 282 282 282 282 283 283 283 283 283 283 283 284 284 284 283 283 283 283 282 282 283 283 283 284 284 284 284
298 298 298 299 299 299 300 300 300 300 300 300 300 300 300 299 299 299 299 298 298 298 297 297 297 296 296 296 295 295 294 294 294 293 293 293 294 293 293 293 293 293 293 293 293 293 292 292 292 291 290 288 285 283 282 282 282 282 283 283 283 283 283 283 283 283 283 284 284 284 284 284 284 283 283 283 282 282 283 283 283 284 284 284 284 284
298 299 299 300 300 300 301 301 301 301 301 301 300 300 300 299 299 299 298 298 298 298 297 297 296 296 296 296 296 295 295 295 294 294 294 294 294 294 294 294 293 293 293 293 293 293 293 292 292 290 288 285 283 283 283 283 283 283 283 283 283 283 284 284 284 284 285 285 285 285 284 284 284 283 283 283 283 283 284 284 285 285 285 285 284 285
299 300 300 301 301 301 302 302 302 302 301 301 301 300 300 299 299 299 298 298 298 297 297 297 297 296 296 296 295 295 295 295 295 294 294 294 294 294 294 294 294 293 293 293 293 293 293 292 290 288 285 284 284 284 284 284 284 284 284 284 284 285 285 285 286 286 286 286 285 285 285 284 284 283 283 284 284 284 285 285 285 286 286 286 286 286
300 300 301 302 302 302 302 302 302 302 302 301 301 300 300 299 299 299 298 298 298 297 297 297 297 297 297 296 296 295 295 295 295 295 295 294 294 294 294 294 294 294 294 293 293 293 292 290 288 286 284 284 285 285 285 285 284 285 285 285 286 286 287 287 287 287 287 286 286 285 285 284 284 284 284 285 285 285 285 285 286 286 286 286 287 288
301 301 302 303 303 303 303 303 303 302 302 301 300 300 299 299 299 298 298 298 298 298 298 298 298 297 297 297 296 296 296 295 295 295 295 295 294 294 294 294 294 294 294 293 293 291 290 287 285 284 285 285 285 285 285 285 285 286 286 287 287 287 287 288 288 287 287 286 286 285 285 285 285 285 285 286 286 286 286 286 286 286 286 287 288 289
302 302 303 303 303 303 303 303 303 302 301 301 300 300 299 299 298 298 298 298 298 298 298 298 298 298 298 297 297 296 296 295 295 295 295 295 295 294 294 294 294 294 294 293 291 289 287 285 284 285 285 286 286 286 286 286 287 287 288 288 288 288 288 288 288 288 287 287 286 286 286 286 286 287 287 287 287 287 287 286 286 287 288 289 290 290
303 303 304 304 304 304 303 303 303 302 301 300 300 299 299 299 298 298 298 298 298 298 298 298 298 298 298 298 297 297 296 296 295 295 295 295 295 295 294 294 294 293 293 291 289 287 285 284 285 285 286 287 287 287 287 288 288 289 289 289 289 289 289 289 288 288 288 287 287 287 287 288 288 288 288 288 288 288 288 288 288 289 290 291 291 292
304 304 304 304 304 304 303 303 302 301 300 300 299 299 299 298 298 298 298 298 298 298 298 298 298 298 298 298 298 297 297 296 296 295 295 295 295 295 294 293 293 292 291 289 286 284 284 285 286 287 287 287 288 288 289 290 290 290 291 291 290 290 290 290 289 289 288 288 288 288 288 289 289 289 289 289 289 289 289 290 291 291 292 293 293 293
304 304 304 304 304 303 303 302 301 301 300 299 299 299 299 298 298 298 299 299 299 299 298 298 298 298 298 298 298 297 297 296 296 295 295 295 295 294 294 292 291 290 289 286 284 284 284 286 287 288 288 289 289 290 291 291 292 292 292 292 291 291 291 290 289 289 289 288 288 289 289 289 289 289 289 290 290 291 292 292 293 294 295 295 295 295
304 304 304 304 304 303 302 302 301 300 299 299 299 299 298 298 299 299 299 299 299 299 299 299 299 299 298 298 298 297 297 296 296 295 295 294 294 294 293 291 290 288 286 284 284 285 286 287 288 289 289 290 290 291 292 292 292 292 292 292 292 292 291 290 290 289 289 289 289 289 289 289 289 290 291 291 292 293 294 295 296 297 297 298 298 297
304 304 304 304 303 303 302 301 300 300 299 299 299 299 298 298 299 299 299 299 299 299 299 299 299 299 298 298 298 297 297 296 295 294 294 294 293 293 292 290 288 286 284 284 285 287 288 289 289 289 289 290 291 291 292 292 292 292 293 292 292 292 291 290 290 289 289 289 289 289 289 289 290 291 292 293 294 295 296 297 298 299 299 299 299 299
304 304 304 303 303 302 301 300 300 300 299 299 299 298 298 298 299 299 299 299 299 299 299 299 299 299 298 298 297 297 296 296 295 294 293 293 292 292 291 289 287 285 285 286 288 289 289 289 289 289 289 290 291 291 292 292 292 292 292 292 292 291 290 290 289 289 289 289 289 289 289 290 291 292 294 295 296 298 299 299 300 300 301 301 300 300
304 304 303 303 302 301 301 300 300 299 299 299 298 298 298 299 299 299 299 299 299 299 299 299 299 298 298 298 297 297 296 295 294 293 292 292 291 291 289 288 287 286 287 288 289 290 290 289 289 289 289 290 291 291 291 291 291 291 291 291 291 290 290 289 289 289 289 289 289 290 291 292 293 294 295 297 298 299 300 301 301 301 301 301 300 300
304 303 303 302 301 301 300 299 299 299 299 298 298 298 298 298 299 299 299 299 299 299 298 298 298 298 298 297 297 296 295 294 293 292 291 291 290 290 289 288 288 289 290 290 290 290 290 289 289 289 289 290 290 290 290 290 290 290 290 290 290 290 290 289 289 289 290 290 291 291 292 293 294 296 297 298 299 300 300 301 301 301 301 301 300 299
303 303 302 301 300 300 299 299 299 298 298 298 298 298 298 298 299 299 299 299 299 298 298 298 298 298 297 297 296 296 295 294 292 291 290 290 290 289 289 289 290 291 292 291 290 289 289 289 290 290 290 290 290 290 290 290 290 290 290 290 290 290 290 290 290 290 291 291 292 293 294 295 296 296 297 298 299 300 300 300 300 300 300 300 300 299
302 302 301 300 299 299 298 298 298 298 298 298 297 297 298 298 298 298 298 298 298 298 298 298 298 297 297 297 296 295 294 293 292 291 291 290 290 289 290 291 292 293 293 293 291 289 288 288 289 290 290 290 290 290 290 290 291 291 291 291 291 291 291 290 291 291 292 293 294 295 295 296 296 297 297 298 299 299 299 299 299 299 299 299 299 299
301 300 300 299 299 298 298 297 297 297 297 297 297 297 297 297 297 298 298 298 298 297 297 297 297 297 296 296 296 295 294 293 292 291 291 290 290 291 292 293 294 294 294 294 293 291 289 288 288 289 289 290 290 291 291 291 291 291 291 291 291 291 291 291 291 291 292 293 294 295 296 296 296 296 297 297 298 299 299 299 299 299 299 299 299 299
300 300 299 299 298 298 297 297 297 297 297 297 296 296 296 296 297 297 297 297 297 297 297 297 297 296 296 296 295 295 294 293 292 291 291 291 291 292 294 294 295 295 294 294 293 293 291 289 288 288 289 290 290 291 292 292 292 292 292 291 291 291 290 291 291 292 292 293 294 295 295 295 295 296 296 297 298 299 299 299 300 300 300 300 300 300
300 299 299 298 298 297 297 297 297 297 296 296 296 296 296 296 296 296 296 296 296 296 296 296 296 296 295 295 295 295 294 293 292 292 292 292 293 294 295 295 295 295 295 294 293 293 292 291 290 289 289 290 291 292 292 293 292 292 292 292 291 291 291 291 291 292 293 293 294 294 294 294 295 295 296 297 298 299 300 300 301 301 301 301 301 301
299 299 298 298 298 298 297 297 297 296 296 296 295 295 295 295 295 295 295 295 295 295 295 295 295 295 295 295 295 295 294 293 293 293 293 294 294 295 295 295 295 295 295 295 294 293 292 292 291 291 290 290 291 292 293 293 293 293 292 292 292 292 291 291 291 292 292 293 294 294 294 294 294 295 296 297 298 300 301 302 303 303 303 303 302 302
299 298 298 298 298 297 297 297 296 296 296 295 295 295 294 294 294 294 294 294 294 294 294 294 294 295 295 295 295 294 294 294 294 294 294 295 295 295 296 296 296 296 296 296 295 294 293 292 292 292 291 291 291 292 293 293 293 293 293 292 292 292 292 292 292 292 292 293 293 293 294 294 294 295 296 298 300 301 303 304 305 305 304 304 303 302
298 298 298 298 297 297 297 296 296 295 295 295 294 294 294 294 294 294 293 293 293 293 293 294 294 295 295 295 294 294 294 294 294 294 294 295 295 295 296 297 297 298 297 297 296 295 294 293 293 292 292 292 292 292 292 293 293 293 293 292 292 292 292 292 292 292 293 293 293 293 294 294 295 296 297 299 301 303 306 307 307 306 305 304 303 302
298 298 298 298 297 297 296 296 295 295 294 294 293 293 293 293 293 292 292 292 291 291 292 294 295 296 296 296 295 294 294 294 294 294 294 294 295 296 297 298 299 299 299 298 298 297 296 295 294 293 293 293 293 293 293 292 292 292 292 292 292 292 292 292 292 292 293 293 293 293 294 294 295 297 299 301 303 306 307 308 308 307 306 305 304 304
298 298 298 297 297 296 296 295 295 294 293 293 293 292 292 292 291 291 290 290 290 291 293 294 296 296 296 296 295 295 294 294 294 293 294 294 295 297 298 299 300 300 300 300 299 298 297 297 296 295 294 293 293 294 294 293 293 292 292 292 292 292 292 291 292 292 292 293 293 294 294 295 296 298 300 303 305 307 308 309 308 308 307 306 306 306
298 298 297 297 296 296 295 294 294 293 292 292 291 291 291 290 289 289 288 289 290 292 294 295 296 296 296 296 295 294 294 294 294 294 295 296 297 299 300 301 301 301 301 301 300 300 299 298 298 297 296 295 294 294 294 294 294 293 292 292 291 291 291 291 291 292 292 293 293 294 294 295 297 299 302 304 306 308 308 308 308 308 308 308 308 308
298 297 297 296 296 295 294 293 293 292 291 291 290 290 289 288 287 287 287 289 291 293 295 295 295 295 295 294 294 293 293 293 294 295 296 298 299 301 302 302 303 303 303 302 302 301 301 300 299 299 298 297 297 296 296 296 295 294 293 292 291 291 291 291 291 291 292 293 293 294 294 295 297 300 303 305 307 308 308 309 309 309 309 310 310 310
297 297 296 296 295 294 293 292 291 290 290 289 289 288 287 286 285 286 287 290 292 294 295 295 295 294 294 293 292 292 293 294 295 296 298 300 301 303 303 304 304 305 304 304 304 303 303 302 301 301 300 299 299 299 298 298 297 296 295 293 292 291 291 291 291 292 292 292 293 294 294 296 298 301 304 306 307 308 308 309 310 310 311 311 311 311
297 296 296 295 294 293 292 291 290 289 289 288 287 285 284 284 284 286 288 290 292 293 294 294 293 292 292 291 291 292 293 295 296 298 300 301 303 304 305 306 306 306 306 306 306 305 305 304 303 303 302 301 301 300 300 299 298 297 296 294 293 292 291 291 291 292 292 293 293 293 294 296 299 301 304 306 307 308 309 309 310 311 312 312 312 312
296 296 295 294 293 291 290 289 288 287 287 286 284 283 282 283 285 287 289 290 291 292 292 292 291 290 290 290 291 292 294 296 298 300 302 303 305 306 307 308 308 309 309 308 308 308 307 306 305 304 303 303 302 302 301 300 299 298 297 296 294 293 292 291 291 291 292 292 293 294 295 297 299 302 304 306 307 308 309 309 310 311 312 312 312 312
296 295 294 292 291 290 288 287 286 285 284 283 281 281 282 284 286 288 289 290 291 291 291 290 289 289 289 290 291 293 296 298 300 302 304 306 307 309 310 310 311 311 311 311 310 309 308 307 306 305 304 304 303 303 302 301 300 299 298 297 296 295 294 293 292 292 292 292 293 294 296 298 300 302 305 306 307 308 308 309 309 310 311 311 312 312
295 294 292 291 289 288 286 285 284 282 281 279 279 280 283 285 287 289 289 290 290 289 288 288 287 288 288 290 293 295 298 300 302 304 306 308 310 311 312 313 313 313 313 312 311 310 309 308 307 306 306 306 305 305 304 303 302 300 299 298 297 296 295 295 294 293 293 294 294 295 297 298 300 303 305 306 307 308 308 308 308 309 310 311 311 312
293 292 290 288 287 285 284 282 280 279 277 277 278 280 283 286 287 288 289 288 288 287 286 286 286 287 289 291 294 297 300 302 305 307 309 311 313 314 315 315 315 315 314 313 312 311 311 310 309 308 308 308 308 308 307 306 304 303 302 301 300 299 298 297 296 296 295 295 296 296 297 299 301 303 305 307 308 308 308 307 308 308 309 310 311 312
291 289 287 286 284 282 280 278 276 275 275 276 278 281 283 285 286 287 287 286 285 285 284 284 285 287 290 293 297 300 303 306 308 310 312 314 316 317 318 318 317 317 316 315 315 314 313 312 312 312 312 312 311 311 310 309 308 306 305 303 302 301 300 299 299 298 297 297 297 297 298 299 301 302 304 306 307 307 307 307 307 308 309 311 312 313
289 287 285 283 280 278 276 274 272 272 274 276 278 280 283 284 285 284 284 283 283 283 283 283 285 289 292 296 299 303 306 309 311 314 316 318 319 320 320 320 320 319 319 319 318 318 318 317 316 316 316 316 316 315 314 312 311 310 308 307 305 304 303 302 300 299 299 298 298 298 299 300 301 302 304 305 306 306 306 307 307 308 309 311 312 313
286 284 281 279 276 273 271 270 270 271 273 276 278 280 281 282 282 281 281 281 280 280 281 283 287 291 295 298 302 305 309 312 316 318 320 322 323 324 324 324 324 325 325 325 325 325 325 324 322 322 321 321 320 319 318 316 315 313 311 310 308 307 305 304 302 301 300 299 298 298 299 300 300 302 303 304 305 306 306 306 307 308 309 311 312 313
282 280 277 274 271 268 267 267 268 270 273 275 277 278 279 279 279 279 279 278 278 278 280 283 288 292 296 300 304 308 313 317 320 322 324 326 327 328 329 330 331 333 334 334 334 334 333 332 330 328 327 326 325 324 322 321 319 316 314 313 311 309 307 306 304 302 301 299 299 298 299 299 300 301 302 303 304 305 305 306 307 308 309 311 312 314
279 276 272 269 266 264 264 266 268 270 272 274 275 276 276 276 276 277 276 275 275 276 279 283 288 292 296 301 306 311 316 320 324 326 328 330 331 333 335 337 339 341 342 343 343 342 341 340 338 336 333 332 331 329 328 326 323 321 319 316 314 312 310 308 306 304 302 300 299 298 298 299 299 300 301 302 303 304 304 305 307 308 309 310 312 314
Height
5653 5652 5651 5650 5648 5647 5646 5645 5643 5642 5641 5640 5638 5636 5634 5633 5631 5630 5628 5627 5625 5623 5622 5621 5620 5618 5617 5615 5613 5611 5609 5607 5604 5602 5600 5597 5595 5592 5590 5587 5585 5583 5581 5579 5577 5575 5574 5572 5570 5568 5566 5564 5562 5560 5558 5557 5555 5553 5551 5550 5548 5546 5545 5543 5541 5540 5538 5537 5536 5535 5534 5533 5533 5532 5532 5531 5530 5529 5528 5527 5525 5523 5522 5521 5519 5517
5648 5647 5646 5644 5643 5642 5640 5640 5638 5636 5634 5633 5632 5630 5628 5627 5625 5624 5622 5621 5619 5617 5616 5614 5613 5612 5610 5609 5607 5605 5602 5600 5597 5595 5593 5590 5587 5585 5582 5580 5577 5575 5573 5572 5569 5567 5566 5564 5562 5560 5558 5556 5554 5552 5550 5548 5546 5544 5542 5541 5539 5537 5536 5534 5532 5531 5529 5528 5527 5526 5525 5524 5523 5522 5522 5522 5521 5520 5519 5518 5516 5515 5513 5512 5511 5510
5644 5642 5641 5640 5638 5637 5635 5634 5633 5631 5629 5627 5626 5624 5623 5621 5619 5618 5616 5615 5613 5612 5610 5609 5607 5606 5604 5603 5601 5599 5596 5594 5591 5589 5587 5584 5581 5578 5576 5573 5571 5568 5567 5564 5562 5561 5559 5557 5555 5552 5550 5548 5546 5544 5542 5540 5538 5536 5534 5532 5531 5529 5527 5525 5523 5522 5520 5519 5518 5517 5516 5515 5514 5513 5513 5512 5512 5511 5511 5509 5508 5507 5506 5505 5503 5502
5639 5637 5636 5635 5633 5632 5630 5629 5627 5626 5624 5622 5620 5618 5617 5615 5614 5612 5611 5609 5607 5606 5605 5603 5602 5600 5599 5597 5595 5593 5591 5588 5586 5583 5580 5578 5575 5572 5569 5567 5564 5562 5560 5558 5556 5554 5552 5550 5548 5545 5543 5541 5538 5536 5534 5532 5530 5528 5527 5525 5523 5521 5519 5517 5515 5514 5512 5511 5509 5508 5507 5506 5505 5505 5504 5504 5504 5503 5503 5502 5501 5500 5499 5498 5497 5495
5635 5633 5631 5630 5629 5627 5626 5624 5622 5620 5618 5617 5615 5613 5612 5610 5608 5607 5605 5604 5602 5601 5599 5598 5597 5595 5593 5591 5589 5587 5585 5582 5580 5577 5575 5572 5569 5566 5563 5561 5558 5556 5554 5552 5550 5547 5545 5543 5541 5539 5536 5534 5532 5529 5527 5525 5523 5521 5519 5517 5515 5513 5511 5510 5508 5506 5505 5503 5502 5500 5499 5498 5498 5497 5497 5497 5496 5496 5496 5495 5494 5493 5492 5491 5490 5488
5631 5628 5626 5625 5623 5622 5620 5619 5617 5615 5613 5611 5610 5608 5606 5604 5602 5601 5600 5598 5597 5595 5594 5592 5591 5589 5587 5585 5583 5581 5579 5577 5574 5571 5569 5566 5563 5560 5557 5554 5552 5550 5547 5546 5543 5541 5539 5537 5534 5532 5530 5527 5525 5522 5520 5518 5516 5514 5512 5510 5508 5506 5504 5502 5501 5499 5498 5496 5495 5494 5493 5492 5492 5491 5490 5490 5490 5489 5489 5488 5487 5487 5486 5485 5483 5482
5626 5624 5622 5620 5618 5617 5616 5614 5612 5610 5607 5606 5604 5603 5601 5599 5597 5595 5594 5593 5591 5590 5588 5587 5585 5583 5581 5579 5577 5575 5573 5571 5568 5565 5562 5560 5557 5554 5551 5548 5546 5544 5542 5539 5537 5535 5532 5530 5528 5525 5523 5521 5518 5516 5513 5511 5509 5507 5504 5502 5500 5498 5497 5495 5494 5492 5491 5490 5489 5488 5487 5487 5486 5485 5484 5484 5483 5482 5482 5482 5481 5480 5479 5479 5478 5477
5621 5620 5618 5616 5614 5612 5611 5609 5607 5605 5602 5600 5599 5597 5596 5594 5592 5591 5589 5587 5585 5584 5582 5581 5579 5577 5575 5573 5570 5568 5566 5564 5562 5559 5556 5553 5550 5547 5545 5542 5540 5538 5536 5533 5531 5529 5526 5524 5521 5519 5516 5514 5512 5509 5507 5504 5502 5499 5497 5495 5493 5491 5490 5488 5487 5486 5485 5484 5483 5482 5482 5481 5480 5479 5478 5478 5477 5476 5476 5476 5475 5474 5473 5473 5472 5471
5616 5614 5613 5612 5610 5608 5606 5604 5603 5601 5598 5595 5593 5592 5590 5588 5587 5586 5584 5582 5580 5578 5576 5574 5572 5571 5569 5567 5564 5562 5559 5557 5554 5552 5549 5547 5544 5541 5538 5536 5534 5532 5529 5527 5525 5522 5520 5517 5515 5512 5510 5507 5505 5502 5500 5497 5494 5492 5490 5488 5486 5484 5483 5482 5481 5480 5479 5478 5477 5477 5476 5475 5474 5473 5473 5472 5471 5471 5470 5470 5469 5468 5467 5467 5466 5464
5611 5610 5608 5607 5606 5604 5602 5599 5597 5596 5593 5591 5588 5586 5584 5582 5580 5579 5578 5577 5575 5573 5570 5568 5566 5564 5562 5560 5557 5555 5552 5550 5547 5545 5543 5540 5537 5534 5532 5530 5527 5526 5523 5521 5518 5516 5514 5511 5509 5506 5504 5501 5498 5496 5493 5490 5487 5485 5483 5481 5479 5478 5477 5476 5475 5474 5473 5473 5472 5471 5470 5470 5469 5468 5467 5466 5465 5465 5464 5464 5463 5462 5461 5460 5459 5458
5606 5605 5603 5602 5601 5599 5597 5595 5592 5590 5588 5585 5583 5580 5578 5577 5574 5572 5571 5570 5569 5567 5565 5562 5560 5557 5556 5553 5550 5548 5546 5543 5541 5538 5536 5533 5530 5527 5525 5523 5521 5519 5517 5515 5512 5510 5507 5505 5502 5500 5497 5495 5492 5489 5486 5483 5480 5478 5476 5475 5473 5472 5471 5471 5470 5469 5468 5467 5467 5466 5465 5464 5463 5462 5462 5461 5460 5459 5458 5457 5457 5456 5455 5454 5452 5451
5601 5600 5598 5597 5596 5594 5592 5590 5587 5585 5582 5580 5577 5575 5572 5571 5568 5566 5564 5562 5562 5561 5559 5557 5554 5552 5549 5546 5543 5540 5538 5537 5534 5532 5529 5527 5524 5521 5519 5517 5515 5513 5511 5509 5506 5504 5501 5498 5496 5493 5491 5488 5485 5482 5479 5476 5474 5472 5470 5469 5468 5467 5466 5465 5465 5464 5463 5462 5462 5461 5460 5459 5458 5457 5456 5455 5454 5453 5452 5452 5451 5450 5449 5447 5446 5445
5596 5595 5593 5592 5590 5589 5587 5584 5582 5579 5577 5574 5572 5569 5566 5564 5562 5560 5558 5556 5555 5554 5552 5550 5548 5546 5543 5540 5536 5533 5531 5529 5527 5525 5523 5520 5517 5514 5512 5510 5508 5507 5504 5502 5500 5497 5494 5492 5489 5487 5484 5482 5478 5476 5473 5470 5468 5466 5465 5464 5463 5462 5461 5461 5460 5459 5458 5457 5457 5456 5454 5453 5452 5452 5450 5449 5448 5447 5447 5446 5445 5444 5442 5441 5440 5438
5591 5589 5587 5586 5585 5583 5581 5578 5575 5573 5570 5568 5565 5563 5560 5558 5556 5554 5552 5550 5548 5547 5546 5544 5542 5540 5538 5534 5530 5526 5523 5522 5520 5518 5517 5514 5511 5507 5505 5503 5502 5500 5498 5496 5493 5490 5487 5485 5483 5480 5478 5475 5472 5470 5467 5465 5463 5461 5460 5459 5458 5457 5457 5456 5455 5454 5453 5452 5452 5450 5449 5448 5447 5446 5445 5444 5443 5442 5441 5439 5438 5437 5436 5435 5433 5432
5586 5584 5582 5581 5579 5577 5575 5572 5569 5566 5564 5562 5559 5557 5554 5552 5550 5548 5546 5544 5542 5541 5539 5538 5536 5535 5532 5529 5524 5519 5516 5514 5512 5512 5511 5508 5505 5501 5497 5496 5494 5493 5491 5489 5486 5483 5481 5479 5477 5474 5472 5470 5467 5464 5462 5460 5458 5457 5455 5454 5453 5452 5452 5451 5450 5449 5448 5447 5447 5445 5444 5443 5442 5441 5439 5438 5437 5436 5435 5433 5432 5431 5430 5428 5427 5425
5581 5578 5576 5575 5573 5571 5569 5566 5563 5560 5557 5555 5552 5550 5548 5546 5544 5542 5539 5537 5535 5534 5532 5531 5529 5528 5527 5524 5520 5514 5509 5507 5505 5505 5505 5503 5499 5494 5491 5488 5487 5486 5485 5482 5480 5477 5474 5472 5471 5468 5466 5464 5462 5460 5457 5455 5454 5452 5451 5450 5449 5448 5447 5447 5446 5444 5443 5442 5441 5440 5439 5438 5437 5435 5434 5433 5432 5430 5429 5427 5426 5424 5423 5422 5420 5418
5575 5573 5571 5568 5567 5565 5562 5560 5557 5554 5551 5549 5546 5544 5542 5540 5537 5535 5533 5531 5529 5527 5526 5524 5523 5522 5520 5519 5515 5510 5504 5500 5498 5497 5497 5496 5493 5489 5484 5482 5480 5479 5478 5477 5474 5471 5468 5467 5465 5463 5461 5459 5457 5455 5453 5451 5449 5448 5447 5445 5444 5443 5442 5442 5440 5439 5438 5437 5436 5435 5434 5432 5432 5430 5429 5427 5426 5424 5423 5421 5420 5418 5416 5415 5413 5412
5569 5567 5565 5562 5560 5558 5557 5554 5551 5547 5545 5542 5540 5537 5535 5533 5531 5529 5527 5525 5523 5521 5519 5517 5516 5515 5513 5511 5509 5505 5499 5495 5492 5490 5490 5489 5487 5483 5479 5475 5473 5472 5472 5470 5468 5465 5463 5462 5460 5458 5456 5454 5452 5451 5448 5447 5445 5443 5442 5441 5440 5439 5438 5437 5435 5434 5433 5432 5431 5430 5429 5427 5426 5425 5424 5422 5421 5419 5417 5416 5414 5412 5411 5408 5407 5405
5563 5561 5559 5556 5554 5552 5550 5548 5545 5542 5538 5535 5533 5531 5529 5527 5525 5523 5521 5519 5517 5515 5513 5511 5509 5507 5506 5504 5502 5499 5494 5488 5485 5484 5483 5482 5481 5478 5474 5470 5467 5466 5466 5464 5462 5460 5458 5457 5456 5454 5452 5450 5448 5446 5444 5442 5441 5439 5438 5437 5436 5434 5433 5432 5431 5429 5428 5427 5426 5425 5424 5422 5421 5420 5418 5417 5415 5414 5412 5410 5408 5407 5405 5403 5401 5398
5557 5555 5553 5551 5547 5545 5543 5541 5538 5535 5532 5528 5526 5524 5522 5521 5519 5517 5515 5513 5511 5509 5507 5505 5503 5501 5499 5497 5495 5492 5487 5482 5479 5477 5476 5475 5474 5472 5468 5464 5462 5461 5460 5459 5457 5455 5453 5452 5451 5450 5448 5446 5444 5442 5440 5438 5437 5435 5434 5432 5431 5430 5428 5427 5426 5424 5423 5422 5421 5420 5418 5417 5416 5414 5413 5412 5410 5408 5407 5404 5402 5401 5399 5397 5395 5392
5550 5549 5547 5545 5542 5539 5536 5534 5532 5528 5525 5522 5519 5517 5515 5514 5512 5511 5509 5507 5506 5503 5502 5499 5497 5495 5493 5491 5488 5485 5481 5476 5472 5470 5468 5468 5468 5466 5462 5458 5456 5455 5455 5454 5452 5451 5449 5448 5447 5445 5444 5442 5440 5437 5436 5434 5432 5431 5429 5427 5426 5425 5423 5422 5421 5419 5418 5417 5416 5415 5413 5412 5411 5409 5407 5406 5404 5402 5401 5399 5397 5395 5393 5390 5388 5386
5544 5542 5541 5538 5536 5533 5531 5528 5525 5522 5518 5516 5513 5511 5508 5507 5505 5504 5503 5502 5500 5497 5496 5494 5492 5489 5487 5484 5481 5478 5474 5470 5466 5463 5462 5461 5461 5460 5458 5454 5451 5450 5450 5449 5448 5447 5445 5444 5442 5441 5439 5437 5435 5433 5432 5430 5428 5426 5424 5423 5421 5420 5418 5417 5416 5415 5414 5412 5411 5410 5409 5407 5406 5404 5402 5401 5399 5397 5395 5393 5391 5389 5387 5384 5382 5380
5538 5537 5535 5532 5529 5527 5524 5521 5518 5515 5512 5509 5507 5504 5502 5500 5498 5497 5496 5495 5493 5491 5489 5487 5486 5483 5481 5477 5474 5471 5467 5463 5459 5456 5455 5454 5454 5454 5453 5449 5447 5446 5446 5445 5444 5442 5441 5440 5438 5437 5435 5433 5431 5429 5427 5426 5424 5422 5420 5418 5417 5415 5414 5412 5411 5410 5409 5408 5407 5406 5404 5403 5401 5399 5397 5396 5394 5392 5390 5387 5385 5383 5381 5379 5377 5375
5532 5531 5528 5526 5523 5521 5518 5515 5512 5509 5506 5503 5500 5497 5495 5493 5492 5491 5490 5488 5486 5483 5482 5480 5479 5477 5475 5472 5468 5465 5462 5458 5454 5451 5449 5447 5448 5448 5447 5445 5442 5441 5442 5441 5440 5438 5437 5436 5434 5432 5431 5429 5427 5425 5423 5422 5420 5417 5416 5414 5412 5411 5409 5408 5407 5406 5405 5404 5402 5401 5400 5398 5396 5394 5392 5391 5388 5387 5384 5382 5380 5377 5375 5373 5371 5369
5526 5524 5522 5520 5517 5515 5512 5508 5506 5502 5499 5496 5493 5490 5488 5487 5486 5485 5483 5481 5478 5476 5474 5473 5472 5471 5469 5466 5463 5460 5456 5452 5449 5446 5443 5442 5442 5442 5442 5440 5438 5437 5437 5437 5436 5434 5432 5432 5430 5428 5426 5425 5423 5421 5419 5417 5416 5414 5412 5410 5408 5407 5405 5404 5403 5402 5401 5400 5398 5397 5395 5394 5392 5390 5388 5386 5383 5381 5379 5377 5374 5372 5370 5368 5366 5364
5520 5518 5516 5514 5512 5508 5505 5502 5499 5496 5493 5490 5487 5485 5482 5480 5479 5478 5477 5475 5472 5469 5467 5466 5465 5464 5462 5460 5457 5455 5452 5448 5444 5441 5439 5437 5437 5437 5438 5436 5434 5433 5433 5432 5432 5430 5428 5427 5426 5424 5422 5421 5419 5417 5416 5414 5412 5410 5408 5406 5405 5403 5402 5400 5399 5398 5397 5395 5394 5392 5391 5389 5387 5385 5383 5381 5378 5376 5374 5371 5369 5367 5364 5362 5360 5359
5514 5512 5510 5508 5505 5502 5499 5497 5493 5491 5488 5485 5481 5478 5475 5473 5472 5471 5471 5469 5467 5463 5461 5460 5458 5457 5456 5454 5452 5450 5447 5443 5440 5436 5434 5433 5432 5432 5433 5432 5431 5429 5428 5428 5427 5426 5425 5423 5422 5420 5419 5417 5415 5413 5412 5410 5408 5406 5404 5402 5401 5399 5397 5396 5395 5394 5392 5391 5390 5388 5387 5385 5383 5381 5378 5376 5374 5371 5369 5366 5364 5362 5359 5357 5356 5354
5508 5506 5504 5502 5499 5496 5493 5490 5488 5485 5482 5479 5475 5472 5468 5467 5465 5464 5463 5462 5460 5457 5455 5454 5452 5451 5450 5449 5447 5445 5443 5439 5435 5432 5430 5429 5428 5428 5429 5428 5427 5425 5424 5423 5423 5422 5421 5419 5417 5416 5415 5413 5411 5410 5408 5406 5404 5402 5401 5399 5397 5395 5393 5392 5391 5389 5388 5387 5385 5384 5382 5380 5378 5376 5374 5372 5369 5367 5364 5362 5359 5357 5355 5353 5351 5349
5503 5501 5498 5496 5493 5490 5487 5485 5482 5479 5476 5473 5470 5466 5463 5461 5459 5458 5457 5456 5454 5452 5449 5448 5447 5445 5443 5442 5442 5441 5439 5435 5431 5427 5426 5425 5425 5425 5425 5424 5422 5421 5420 5418 5418 5418 5418 5416 5413 5412 5410 5409 5407 5406 5404 5402 5400 5398 5397 5395 5393 5391 5389 5388 5387 5385 5384 5382 5381 5379 5377 5376 5374 5372 5370 5367 5365 5362 5360 5357 5355 5352 5350 5348 5346 5344
5498 5495 5492 5490 5487 5485 5482 5479 5477 5474 5471 5468 5465 5462 5458 5455 5453 5452 5450 5449 5447 5446 5444 5442 5441 5440 5438 5437 5436 5436 5434 5431 5427 5424 5422 5422 5421 5421 5421 5420 5418 5417 5416 5414 5413 5413 5414 5413 5411 5408 5406 5405 5404 5402 5400 5398 5396 5394 5393 5391 5389 5387 5386 5384 5382 5381 5380 5378 5377 5375 5373 5371 5369 5367 5365 5363 5361 5358 5356 5353 5351 5348 5346 5344 5342 5339
5492 5490 5488 5485 5482 5479 5477 5474 5471 5469 5466 5463 5460 5457 5454 5451 5449 5447 5445 5443 5442 5440 5439 5437 5436 5435 5433 5432 5431 5431 5430 5427 5423 5420 5419 5418 5418 5418 5417 5416 5414 5413 5412 5410 5408 5407 5407 5408 5408 5406 5403 5401 5400 5398 5396 5394 5392 5390 5389 5387 5385 5384 5382 5380 5378 5377 5376 5374 5372 5371 5369 5367 5365 5363 5361 5359 5357 5354 5352 5349 5346 5343 5341 5339 5337 5335
5487 5485 5482 5479 5477 5474 5471 5469 5466 5463 5461 5458 5455 5452 5449 5447 5444 5442 5440 5438 5437 5435 5434 5433 5432 5431 5429 5428 5427 5426 5425 5423 5420 5417 5416 5415 5414 5414 5414 5412 5411 5410 5409 5407 5405 5403 5402 5402 5403 5402 5400 5398 5396 5394 5392 5391 5388 5387 5385 5383 5382 5380 5378 5376 5374 5373 5372 5370 5368 5367 5365 5363 5361 5359 5357 5354 5352 5350 5347 5344 5341 5338 5336 5334 5332 5330
5481 5478 5476 5473 5471 5468 5466 5463 5460 5457 5455 5452 5450 5447 5444 5442 5440 5437 5436 5434 5432 5431 5430 5428 5427 5426 5425 5424 5423 5422 5420 5418 5416 5414 5412 5412 5411 5411 5411 5409 5407 5406 5405 5404 5402 5400 5398 5397 5397 5397 5396 5395 5393 5391 5389 5387 5385 5383 5381 5379 5377 5376 5374 5372 5370 5369 5367 5366 5364 5362 5361 5359 5357 5355 5352 5350 5347 5345 5342 5339 5336 5333 5330 5328 5326 5325
5474 5472 5470 5467 5465 5462 5460 5457 5454 5452 5449 5447 5444 5442 5440 5437 5435 5433 5432 5430 5428 5427 5426 5425 5424 5422 5421 5420 5419 5418 5417 5415 5413 5411 5409 5408 5407 5407 5407 5406 5404 5402 5401 5400 5398 5397 5395 5394 5392 5392 5391 5391 5390 5387 5385 5383 5381 5379 5377 5375 5373 5372 5370 5368 5366 5365 5363 5362 5360 5358 5357 5354 5352 5350 5348 5346 5343 5340 5337 5334 5331 5328 5325 5323 5321 5319
5469 5466 5463 5461 5458 5456 5454 5451 5449 5446 5443 5441 5439 5437 5435 5433 5431 5429 5427 5426 5424 5423 5422 5421 5420 5419 5418 5417 5416 5415 5414 5412 5410 5408 5406 5405 5404 5404 5403 5402 5401 5399 5397 5396 5395 5393 5391 5390 5389 5388 5386 5386 5386 5384 5382 5379 5377 5376 5374 5372 5369 5367 5365 5363 5362 5360 5359 5357 5356 5354 5352 5350 5348 5346 5343 5341 5338 5336 5332 5329 5326 5323 5321 5318 5316 5313
5462 5460 5458 5455 5453 5450 5448 5446 5443 5441 5438 5436 5434 5432 5430 5428 5427 5425 5423 5422 5421 5420 5419 5417 5417 5416 5414 5413 5412 5412 5410 5409 5407 5405 5404 5402 5401 5401 5400 5399 5397 5396 5393 5392 5391 5389 5388 5387 5386 5384 5383 5382 5381 5380 5379 5377 5374 5372 5370 5368 5366 5363 5361 5359 5357 5356 5354 5353 5351 5349 5347 5345 5343 5341 5339 5336 5333 5331 5327 5324 5322 5319 5316 5314 5311 5309
5456 5454 5452 5449 5447 5444 5442 5440 5437 5435 5433 5431 5429 5427 5426 5424 5422 5421 5420 5419 5418 5417 5416 5415 5413 5412 5411 5410 5409 5408 5407 5406 5404 5403 5401 5400 5398 5397 5397 5395 5394 5393 5391 5388 5387 5386 5384 5383 5382 5381 5380 5378 5377 5376 5374 5373 5371 5369 5367 5365 5362 5360 5357 5355 5353 5351 5350 5348 5347 5345 5343 5341 5339 5337 5334 5332 5329 5326 5323 5320 5317 5315 5312 5310 5307 5305
5450 5448 5446 5443 5441 5438 5436 5434 5432 5430 5428 5426 5424 5423 5421 5420 5419 5417 5417 5415 5415 5414 5413 5412 5411 5409 5408 5407 5406 5405 5404 5403 5401 5400 5398 5397 5396 5395 5394 5392 5391 5390 5388 5386 5383 5382 5381 5379 5378 5377 5376 5375 5373 5372 5370 5368 5367 5365 5363 5361 5359 5356 5353 5351 5349 5347 5346 5344 5342 5340 5338 5336 5334 5332 5329 5327 5324 5321 5319 5316 5314 5311 5309 5306 5304 5301
5443 5442 5439 5437 5435 5433 5431 5429 5427 5425 5423 5422 5420 5419 5417 5416 5415 5414 5413 5412 5412 5411 5410 5409 5408 5407 5406 5405 5404 5402 5401 5400 5398 5397 5396 5394 5393 5392 5391 5390 5388 5387 5385 5383 5381 5379 5377 5375 5374 5372 5371 5370 5369 5368 5367 5365 5362 5361 5359 5357 5355 5353 5350 5347 5345 5343 5341 5340 5338 5336 5334 5332 5330 5328 5325 5322 5320 5317 5315 5312 5310 5307 5305 5303 5301 5298
5437 5435 5433 5432 5429 5427 5425 5423 5422 5420 5418 5417 5416 5415 5414 5413 5412 5411 5410 5410 5409 5408 5407 5406 5406 5405 5404 5403 5402 5400 5399 5397 5396 5394 5393 5391 5390 5389 5388 5387 5385 5383 5382 5380 5378 5376 5374 5372 5370 5369 5367 5366 5365 5364 5362 5361 5358 5357 5355 5353 5351 5349 5347 5344 5341 5339 5337 5335 5333 5332 5330 5328 5326 5324 5321 5318 5316 5313 5311 5309 5306 5304 5302 5299 5297 5294
5432 5430 5428 5426 5424 5422 5420 5418 5417 5415 5414 5413 5412 5411 5410 5410 5409 5408 5408 5407 5406 5406 5405 5404 5403 5402 5402 5401 5399 5398 5396 5395 5393 5392 5390 5389 5387 5386 5385 5383 5382 5380 5379 5377 5375 5373 5371 5369 5367 5365 5364 5362 5361 5360 5358 5357 5355 5352 5350 5348 5347 5345 5343 5340 5337 5335 5333 5331 5330 5328 5326 5324 5322 5320 5317 5315 5312 5310 5307 5305 5302 5300 5297 5295 5293 5291
5426 5424 5422 5421 5419 5417 5415 5413 5412 5411 5410 5409 5409 5408 5407 5407 5406 5406 5405 5405 5404 5403 5402 5402 5401 5401 5400 5398 5397 5396 5394 5392 5391 5389 5388 5387 5385 5384 5382 5381 5379 5377 5376 5374 5372 5370 5368 5366 5364 5362 5360 5359 5357 5356 5355 5353 5351 5349 5346 5344 5342 5341 5339 5337 5334 5331 5329 5327 5326 5324 5322 5320 5318 5316 5314 5311 5309 5306 5304 5301 5298 5296 5294 5292 5289 5287
5420 5419 5417 5415 5414 5412 5411 5409 5408 5407 5407 5406 5405 5405 5404 5404 5403 5403 5403 5402 5402 5401 5400 5400 5399 5398 5398 5397 5395 5394 5392 5391 5389 5387 5386 5384 5383 5381 5380 5378 5376 5374 5372 5371 5369 5367 5366 5363 5361 5359 5357 5356 5354 5352 5351 5349 5347 5345 5342 5340 5338 5336 5334 5332 5331 5328 5326 5323 5322 5320 5318 5316 5314 5312 5310 5308 5305 5303 5300 5298 5295 5293 5291 5288 5286 5283
5415 5413 5412 5411 5409 5408 5407 5406 5405 5404 5403 5403 5402 5402 5402 5401 5401 5401 5400 5400 5399 5399 5398 5398 5397 5397 5396 5394 5393 5392 5391 5389 5387 5385 5384 5382 5381 5379 5377 5376 5374 5372 5370 5368 5366 5364 5362 5361 5358 5357 5355 5353 5351 5349 5347 5346 5344 5341 5339 5337 5334 5332 5329 5328 5326 5324 5322 5320 5318 5316 5314 5312 5311 5309 5307 5305 5302 5300 5297 5295 5292 5290 5287 5285 5282 5280
5410 5409 5407 5406 5405 5404 5403 5402 5402 5401 5401 5400 5400 5399 5399 5399 5398 5398 5398 5397 5397 5397 5396 5396 5395 5394 5393 5392 5391 5390 5389 5387 5386 5384 5382 5381 5379 5377 5376 5374 5372 5370 5368 5366 5364 5362 5360 5357 5356 5354 5352 5350 5348 5346 5343 5342 5340 5337 5335 5333 5330 5328 5326 5324 5322 5320 5318 5317 5314 5312 5310 5308 5307 5305 5304 5302 5300 5297 5294 5292 5289 5287 5285 5282 5279 5277
5406 5404 5403 5402 5401 5400 5400 5399 5398 5398 5398 5398 5397 5397 5397 5396 5396 5396 5396 5395 5395 5395 5394 5394 5393 5392 5391 5390 5389 5388 5387 5386 5384 5382 5381 5379 5377 5376 5374 5372 5370 5368 5366 5364 5361 5359 5357 5355 5352 5351 5349 5347 5345 5342 5340 5337 5335 5333 5331 5329 5327 5324 5322 5320 5317 5316 5314 5312 5310 5308 5307 5305 5303 5302 5300 5299 5297 5294 5292 5289 5286 5284 5282 5279 5276 5273
5402 5400 5399 5398 5398 5397 5397 5396 5396 5396 5396 5395 5395 5395 5394 5394 5394 5394 5393 5393 5393 5393 5392 5392 5391 5390 5389 5388 5387 5387 5385 5384 5383 5381 5380 5378 5376 5374 5372 5371 5368 5366 5364 5362 5359 5357 5354 5352 5350 5347 5346 5344 5342 5339 5337 5334 5332 5329 5327 5325 5322 5320 5318 5316 5314 5312 5310 5308 5306 5305 5303 5302 5300 5299 5297 5296 5294 5292 5289 5286 5283 5281 5278 5276 5273 5270
5397 5397 5396 5395 5395 5394 5394 5393 5393 5393 5393 5393 5393 5392 5392 5392 5392 5392 5392 5392 5391 5391 5390 5390 5389 5388 5387 5387 5386 5385 5384 5382 5381 5380 5379 5377 5375 5373 5371 5369 5367 5365 5362 5360 5358 5355 5352 5349 5347 5345 5343 5341 5339 5336 5334 5331 5328 5325 5323 5321 5318 5316 5314 5312 5310 5308 5306 5304 5302 5301 5299 5298 5297 5295 5294 5293 5291 5289 5287 5284 5281 5278 5276 5273 5270 5267
5393 5393 5392 5392 5392 5391 5391 5391 5391 5391 5391 5391 5391 5391 5390 5390 5390 5390 5390 5390 5389 5389 5388 5387 5387 5386 5385 5385 5384 5383 5382 5381 5380 5379 5377 5376 5374 5372 5371 5368 5366 5364 5362 5359 5356 5354 5351 5347 5345 5342 5340 5338 5336 5334 5331 5329 5326 5322 5319 5317 5315 5312 5311 5308 5307 5305 5303 5301 5299 5298 5296 5295 5293 5292 5291 5289 5288 5286 5284 5281 5278 5276 5273 5270 5268 5265
5390 5390 5389 5389 5389 5389 5389 5389 5389 5389 5388 5388 5388 5388 5388 5388 5388 5388 5388 5387 5387 5387 5386 5386 5385 5384 5384 5383 5382 5382 5381 5379 5378 5377 5376 5375 5373 5372 5370 5368 5366 5363 5361 5358 5355 5352 5350 5346 5343 5340 5337 5336 5333 5331 5328 5326 5323 5320 5317 5314 5311 5309 5307 5305 5303 5302 5300 5298 5296 5295 5293 5292 5290 5289 5287 5286 5285 5283 5282 5279 5276 5273 5271 5268 5265 5262
5387 5387 5387 5386 5386 5386 5387 5387 5387 5387 5387 5387 5387 5387 5387 5387 5386 5386 5386 5386 5385 5385 5384 5384 5383 5383 5382 5381 5381 5380 5379 5378 5377 5376 5374 5373 5372 5370 5369 5367 5364 5362 5360 5357 5354 5351 5348 5345 5342 5338 5335 5332 5330 5328 5326 5323 5320 5317 5314 5311 5308 5306 5304 5302 5300 5298 5297 5295 5293 5292 5290 5289 5287 5286 5285 5283 5282 5281 5279 5277 5274 5272 5269 5266 5263 5260